Погода в Западном Кончезеро

Россия / Республика Карелия     62°06′28″N   34°00′32″E
темп.,
°C
ветер,
м/с
пор.,
м/с
влажн.,
%
обл.,
%
осадки,
мм/ч
давл.,
гПа
погр.,
м
28 октября, чт
чт2800:00+5з1398100 0.1 1003112
03:00+4св2397100 0.7 1003198
06:00+2св3698100 0.4 1006345
09:00+1св3696100 0.7 1010376
12:00+2в2482100 0.1 1014557
15:00+2вюв2576100 0.1 1016560
18:00+1юв278398 0.0 1017227
21:00+2ююв31085100 0.0 1016394
29 октября, пт
пт2900:00+4ю41292100 0.0 1015532
03:00+5ю41393100 0.8 1012540
06:00+6ююз51392100 1.4 1009795
09:00+6ююз41197100 1.4 1008505
12:00+9юз41297100 0.0 1007557
15:00+9юз51395100 0.0 1008650
18:00+8зюз5169044 0.0 1008774
21:00+9зюз6169076 0.0 1008725
30 октября, сб
сб3000:00+8зюз5158887 0.0 1009631
03:00+7зюз4139112 0.0 1010540
06:00+6зюз3109468 0.0 1012367
09:00+6зюз3109686 0.0 1013377
12:00+7зюз4989100 0.0 1014500
15:00+8юз4885100 0.0 1015580
18:00+7юз4886100 0.0 1015559
21:00+7юз488495 0.0 1015564
31 октября, вс
вс3100:00+6юз31391100 0.0 1015446
03:00+6юз41493100 0.0 1014457
06:00+5зюз4139594 0.0 1014451
09:00+7зюз51189100 0.0 1014461
12:00+7зюз41188100 0.0 1014420
15:00+7зюз31088100 0.0 1014424
18:00+5ююз279651 0.0 1014204
21:00+4ю2397100 0.0 101380
1 ноября, пн
пн100:00+4ююв2397100 0.0 101272
03:00+5ююз31094100 0.0 1011459
06:00+6юз31093100 0.0 1011528
09:00+6юз31093100 0.0 1012535
12:00+7юз31191100 0.0 1012610
15:00+7юз3991100 0.0 1013511
18:00+7ююз2795100 0.0 1013287
21:00+7ю1597100 0.0 1014176